カタログに戻る

STARLINK-37990

運用中通信SSO
NORAD 69683·PAYLOAD·🇺🇸 United States

打ち上げ Jun 25, 2026 から Vandenberg Space Force Base

Loading…

次のパス (今後24時間)

TLE

最新Source: CelesTrak SupGP

元期: Sep 15, 2026, 04:19 UTC

1 69683C 26145G   26258.18034722 -.00053338  00000+0 -16556-2 0  2586
2 69683  97.2851 104.8802 0002087  95.9982 325.2815 15.33468554    19

AllMySatでSTARLINK-37990をリアルタイム追跡

Download on the App Store